| time (UTC) | temp F | wind direction | speed knots | gust knots | rain 1hr in | rain 24hr in | rain mn in | humidity % | barometer mb |
| 20260507015035 | 61 | 15 | 5.2 | 8.7 | 0.00 | 0.04 | 0.04 | 77 | 1014.9 |
| 20260507014544 | 61 | 343 | 3.5 | 7.0 | 0.00 | 0.04 | 0.04 | 77 | 1014.9 |
| 20260507014037 | 61 | 359 | 2.6 | 5.2 | 0.00 | 0.04 | 0.04 | 77 | 1014.7 |
| 20260507013541 | 62 | 319 | 2.6 | 7.0 | 0.00 | 0.04 | 0.04 | 77 | 1014.6 |
| 20260507013055 | 62 | 343 | 3.5 | 7.8 | 0.00 | 0.04 | 0.04 | 76 | 1014.5 |
| 20260507012537 | 62 | 15 | 5.2 | 7.8 | 0.00 | 0.04 | 0.04 | 76 | 1014.3 |
| 20260507012036 | 63 | 1 | 3.5 | 7.8 | 0.00 | 0.04 | 0.04 | 78 | 1014.2 |
| 20260507011543 | 63 | 354 | 1.7 | 3.5 | 0.00 | 0.04 | 0.04 | 77 | 1014.1 |
| 20260507011036 | 64 | 44 | 0.0 | 1.7 | 0.00 | 0.04 | 0.04 | 77 | 1014.0 |
| 20260507010536 | 64 | 0 | 0.0 | 0.9 | 0.00 | 0.04 | 0.04 | 76 | 1013.9 |
| 20260507010044 | 64 | 0 | 0.0 | 0.9 | 0.00 | 0.04 | 0.04 | 76 | 1013.9 |
| 20260507005535 | 64 | 0 | 0.0 | 1.7 | 0.00 | 0.04 | 0.04 | 76 | 1013.7 |
| 20260507005036 | 64 | 86 | 0.0 | 1.7 | 0.00 | 0.04 | 0.04 | 75 | 1013.7 |
| 20260507004539 | 64 | 0 | 0.0 | 1.7 | 0.00 | 0.04 | 0.04 | 75 | 1013.6 |
| 20260507004036 | 65 | 79 | 0.0 | 3.5 | 0.00 | 0.04 | 0.04 | 74 | 1013.6 |
| 20260507003540 | 65 | 0 | 0.0 | 4.3 | 0.00 | 0.04 | 0.04 | 74 | 1013.6 |
| 20260507003039 | 65 | 84 | 1.7 | 5.2 | 0.00 | 0.04 | 0.04 | 74 | 1013.5 |
| 20260507002536 | 66 | 61 | 3.5 | 5.2 | 0.00 | 0.04 | 0.04 | 72 | 1013.5 |
| 20260507002037 | 66 | 94 | 3.5 | 5.2 | 0.00 | 0.04 | 0.04 | 72 | 1013.5 |
| 20260507001543 | 67 | 54 | 1.7 | 5.2 | 0.00 | 0.04 | 0.04 | 71 | 1013.3 |
| 20260507001036 | 67 | 63 | 1.7 | 5.2 | 0.00 | 0.04 | 0.04 | 71 | 1013.2 |
| 20260507000536 | 67 | 74 | 3.5 | 6.1 | 0.00 | 0.04 | 0.04 | 70 | 1013.3 |
| 20260507000046 | 67 | 74 | 3.5 | 6.1 | 0.00 | 0.04 | 0.04 | 69 | 1013.4 |
| 20260506235536 | 67 | 71 | 2.6 | 4.3 | 0.00 | 0.04 | 0.04 | 71 | 1013.2 |
| 20260506235029 | 67 | 44 | 2.6 | 7.0 | 0.00 | 0.04 | 0.04 | 69 | 1013.2 |
| 20260506234555 | 67 | 34 | 2.6 | 7.0 | 0.00 | 0.04 | 0.04 | 70 | 1013.2 |
| 20260506234033 | 67 | 71 | 3.5 | 6.1 | 0.00 | 0.04 | 0.04 | 68 | 1013.1 |
| 20260506233531 | 67 | 78 | 2.6 | 7.8 | 0.00 | 0.04 | 0.04 | 69 | 1013.1 |
| 20260506233048 | 67 | 71 | 4.3 | 7.8 | 0.00 | 0.04 | 0.04 | 69 | 1013.1 |
| 20260506232532 | 67 | 69 | 5.2 | 7.8 | 0.00 | 0.04 | 0.04 | 70 | 1013.0 |
| 20260506232031 | 67 | 79 | 3.5 | 5.2 | 0.00 | 0.04 | 0.04 | 70 | 1013.0 |
| 20260506231543 | 66 | 45 | 2.6 | 5.2 | 0.00 | 0.04 | 0.04 | 70 | 1013.1 |
| 20260506231030 | 66 | 77 | 2.6 | 5.2 | 0.00 | 0.04 | 0.04 | 70 | 1013.0 |
| 20260506230530 | 67 | 62 | 2.6 | 5.2 | 0.00 | 0.04 | 0.04 | 70 | 1013.0 |
| 20260506230046 | 67 | 84 | 2.6 | 5.2 | 0.00 | 0.04 | 0.04 | 70 | 1013.0 |
| 20260506225533 | 67 | 64 | 2.6 | 6.1 | 0.00 | 0.04 | 0.04 | 71 | 1012.8 |
| 20260506225030 | 66 | 39 | 3.5 | 6.1 | 0.00 | 0.04 | 0.04 | 70 | 1012.8 |
| 20260506224556 | 66 | 4 | 3.5 | 6.1 | 0.00 | 0.04 | 0.04 | 68 | 1012.7 |
| 20260506224032 | 66 | 51 | 3.5 | 6.1 | 0.00 | 0.04 | 0.04 | 69 | 1012.7 |
| 20260506223529 | 66 | 18 | 3.5 | 6.1 | 0.00 | 0.04 | 0.04 | 70 | 1012.8 |
| 20260506223040 | 66 | 41 | 2.6 | 6.1 | 0.00 | 0.04 | 0.04 | 70 | 1012.8 |
| 20260506222534 | 66 | 54 | 1.7 | 7.0 | 0.00 | 0.04 | 0.04 | 71 | 1012.7 |
| 20260506222034 | 65 | 75 | 2.6 | 7.0 | 0.00 | 0.04 | 0.04 | 70 | 1012.7 |
| 20260506221539 | 65 | 55 | 3.5 | 7.0 | 0.00 | 0.04 | 0.04 | 70 | 1012.6 |
| 20260506221034 | 65 | 63 | 3.5 | 6.1 | 0.00 | 0.04 | 0.04 | 70 | 1012.7 |
| 20260506220533 | 66 | 23 | 3.5 | 7.0 | 0.00 | 0.04 | 0.04 | 70 | 1012.6 |
| 20260506220039 | 66 | 349 | 3.5 | 7.0 | 0.00 | 0.04 | 0.04 | 69 | 1012.6 |
| 20260506215533 | 65 | 14 | 3.5 | 7.0 | 0.00 | 0.04 | 0.04 | 70 | 1012.7 |
| 20260506215030 | 65 | 52 | 3.5 | 7.0 | 0.00 | 0.04 | 0.04 | 69 | 1012.8 |
| 20260506214539 | 66 | 54 | 3.5 | 6.1 | 0.00 | 0.04 | 0.04 | 69 | 1012.9 |
| 20260506214032 | 65 | 58 | 3.5 | 6.1 | 0.00 | 0.04 | 0.04 | 71 | 1012.9 |
| 20260506213530 | 65 | 91 | 2.6 | 7.8 | 0.00 | 0.04 | 0.04 | 72 | 1012.9 |
| 20260506213044 | 65 | 353 | 4.3 | 7.8 | 0.00 | 0.04 | 0.04 | 69 | 1013.1 |
| 20260506212533 | 65 | 16 | 3.5 | 7.0 | 0.00 | 0.04 | 0.04 | 69 | 1012.9 |
| 20260506212033 | 65 | 48 | 3.5 | 7.8 | 0.00 | 0.04 | 0.04 | 72 | 1012.8 |
| 20260506211543 | 64 | 59 | 3.5 | 7.8 | 0.00 | 0.04 | 0.04 | 71 | 1013.1 |
| 20260506211030 | 64 | 2 | 3.5 | 7.0 | 0.00 | 0.04 | 0.04 | 71 | 1013.1 |
| 20260506210533 | 64 | 37 | 3.5 | 7.0 | 0.00 | 0.04 | 0.04 | 72 | 1013.1 |
| 20260506210041 | 64 | 62 | 2.6 | 5.2 | 0.00 | 0.04 | 0.04 | 71 | 1013.4 |
| 20260506205532 | 64 | 329 | 3.5 | 6.1 | 0.00 | 0.04 | 0.04 | 70 | 1013.2 |
| 20260506205035 | 64 | 27 | 2.6 | 7.8 | 0.00 | 0.04 | 0.04 | 71 | 1013.2 |
| 20260506204538 | 64 | 344 | 3.5 | 7.8 | 0.00 | 0.04 | 0.04 | 72 | 1013.2 |
| 20260506204035 | 63 | 13 | 2.6 | 7.8 | 0.00 | 0.04 | 0.04 | 73 | 1013.4 |
| 20260506203535 | 63 | 18 | 3.5 | 7.8 | 0.00 | 0.04 | 0.04 | 73 | 1013.2 |
| 20260506203046 | 63 | 17 | 4.3 | 7.8 | 0.00 | 0.04 | 0.04 | 72 | 1013.5 |
| 20260506202536 | 62 | 345 | 1.7 | 7.0 | 0.00 | 0.04 | 0.04 | 73 | 1013.5 |
| 20260506202035 | 62 | 310 | 4.3 | 7.8 | 0.00 | 0.04 | 0.04 | 73 | 1013.5 |
| 20260506201543 | 62 | 340 | 3.5 | 10.4 | 0.00 | 0.04 | 0.04 | 74 | 1013.6 |
| 20260506201034 | 62 | 44 | 5.2 | 10.4 | 0.00 | 0.04 | 0.04 | 73 | 1013.5 |
| 20260506200534 | 62 | 53 | 3.5 | 8.7 | 0.00 | 0.04 | 0.04 | 73 | 1013.7 |
| 20260506200043 | 62 | 15 | 6.1 | 8.7 | 0.00 | 0.04 | 0.04 | 73 | 1013.8 |
| 20260506195535 | 62 | 333 | 2.6 | 7.0 | 0.00 | 0.04 | 0.04 | 73 | 1013.8 |
| 20260506195036 | 62 | 16 | 3.5 | 7.0 | 0.00 | 0.04 | 0.04 | 74 | 1013.9 |
| 20260506194555 | 61 | 19 | 3.5 | 5.2 | 0.00 | 0.04 | 0.04 | 75 | 1014.1 |
| 20260506194035 | 61 | 23 | 3.5 | 8.7 | 0.00 | 0.04 | 0.04 | 75 | 1014.0 |
| 20260506193537 | 61 | 349 | 2.6 | 8.7 | 0.00 | 0.04 | 0.04 | 76 | 1014.0 |
| 20260506193038 | 61 | 13 | 6.1 | 8.7 | 0.00 | 0.04 | 0.04 | 74 | 1014.4 |
| 20260506192532 | 61 | 30 | 4.3 | 7.8 | 0.00 | 0.04 | 0.04 | 75 | 1014.3 |
| 20260506192032 | 61 | 13 | 3.5 | 7.8 | 0.00 | 0.04 | 0.04 | 75 | 1014.1 |
| 20260506191546 | 61 | 16 | 5.2 | 9.6 | 0.00 | 0.04 | 0.04 | 77 | 1014.2 |
| 20260506191035 | 60 | 25 | 2.6 | 9.6 | 0.00 | 0.04 | 0.04 | 78 | 1014.4 |
| 20260506190538 | 59 | 20 | 4.3 | 9.6 | 0.00 | 0.04 | 0.04 | 76 | 1014.4 |
| 20260506190047 | 59 | 349 | 3.5 | 7.0 | 0.00 | 0.04 | 0.04 | 80 | 1014.5 |
| 20260506185535 | 58 | 11 | 4.3 | 7.0 | 0.00 | 0.04 | 0.04 | 79 | 1014.5 |
| 20260506185035 | 58 | 19 | 4.3 | 8.7 | 0.00 | 0.04 | 0.04 | 79 | 1014.6 |
| 20260506184544 | 58 | 48 | 6.1 | 10.4 | 0.00 | 0.04 | 0.04 | 81 | 1014.7 |
| 20260506184035 | 58 | 39 | 6.1 | 10.4 | 0.00 | 0.04 | 0.04 | 80 | 1014.9 |
| 20260506183535 | 57 | 347 | 5.2 | 7.8 | 0.00 | 0.04 | 0.04 | 82 | 1014.6 |
| 20260506183043 | 57 | 15 | 3.5 | 7.8 | 0.00 | 0.04 | 0.04 | 82 | 1014.5 |
| 20260506182535 | 56 | 357 | 4.3 | 8.7 | 0.00 | 0.04 | 0.04 | 81 | 1015.0 |
| 20260506182035 | 56 | 30 | 4.3 | 8.7 | 0.00 | 0.04 | 0.04 | 82 | 1014.7 |
| 20260506181545 | 56 | 20 | 6.1 | 8.7 | 0.00 | 0.04 | 0.04 | 83 | 1014.7 |
| 20260506181036 | 56 | 300 | 3.5 | 8.7 | 0.00 | 0.04 | 0.04 | 85 | 1014.7 |
| 20260506180536 | 55 | 338 | 4.3 | 8.7 | 0.00 | 0.04 | 0.04 | 85 | 1014.7 |
| 20260506180052 | 55 | 319 | 3.5 | 8.7 | 0.00 | 0.04 | 0.04 | 86 | 1014.7 |
| 20260506175536 | 55 | 11 | 4.3 | 8.7 | 0.00 | 0.04 | 0.04 | 86 | 1014.8 |
| 20260506175032 | 55 | 322 | 4.3 | 8.7 | 0.00 | 0.04 | 0.04 | 86 | 1014.8 |
| 20260506174548 | 54 | 323 | 4.3 | 9.6 | 0.00 | 0.04 | 0.04 | 87 | 1014.6 |
| 20260506174032 | 54 | 14 | 5.2 | 11.3 | 0.00 | 0.04 | 0.04 | 89 | 1014.7 |
| 20260506173539 | 53 | 349 | 7.0 | 11.3 | 0.00 | 0.04 | 0.04 | 87 | 1014.7 |
| 20260506173048 | 53 | 53 | 6.1 | 9.6 | 0.00 | 0.04 | 0.04 | 88 | 1014.7 |
| 20260506172534 | 53 | 352 | 6.1 | 9.6 | 0.00 | 0.04 | 0.04 | 89 | 1014.9 |
| 20260506172036 | 53 | 5 | 5.2 | 10.4 | 0.00 | 0.04 | 0.04 | 89 | 1015.0 |
| 20260506171553 | 53 | 323 | 4.3 | 10.4 | 0.00 | 0.04 | 0.04 | 90 | 1015.0 |
| 20260506171035 | 53 | 9 | 6.1 | 10.4 | 0.00 | 0.04 | 0.04 | 90 | 1014.8 |
| 20260506170535 | 52 | 326 | 6.1 | 14.8 | 0.00 | 0.04 | 0.04 | 91 | 1014.7 |
| 20260506170043 | 52 | 26 | 7.8 | 14.8 | 0.00 | 0.04 | 0.04 | 90 | 1014.4 |
| 20260506165534 | 52 | 37 | 7.8 | 12.2 | 0.00 | 0.04 | 0.04 | 91 | 1014.3 |
| 20260506165036 | 52 | 319 | 8.7 | 12.2 | 0.00 | 0.04 | 0.04 | 91 | 1014.5 |
| 20260506164539 | 52 | 33 | 6.1 | 12.2 | 0.00 | 0.04 | 0.04 | 91 | 1014.6 |
| 20260506164035 | 52 | 17 | 8.7 | 12.2 | 0.00 | 0.04 | 0.04 | 91 | 1014.4 |
| 20260506163532 | 52 | 24 | 7.0 | 10.4 | 0.00 | 0.04 | 0.04 | 90 | 1014.8 |
| 20260506163049 | 52 | 15 | 4.3 | 9.6 | 0.00 | 0.04 | 0.04 | 91 | 1014.9 |
| 20260506162533 | 52 | 345 | 3.5 | 9.6 | 0.00 | 0.04 | 0.04 | 91 | 1015.0 |
| 20260506162033 | 51 | 32 | 6.1 | 9.6 | 0.00 | 0.04 | 0.04 | 92 | 1014.6 |
| 20260506161538 | 51 | 23 | 5.2 | 8.7 | 0.00 | 0.04 | 0.04 | 91 | 1014.5 |
| 20260506161033 | 51 | 29 | 4.3 | 9.6 | 0.00 | 0.04 | 0.04 | 92 | 1014.5 |
| 20260506160533 | 51 | 15 | 6.1 | 9.6 | 0.00 | 0.04 | 0.04 | 92 | 1014.2 |
| 20260506160046 | 51 | 328 | 7.0 | 9.6 | 0.00 | 0.04 | 0.04 | 92 | 1014.3 |
| 20260506155533 | 51 | 17 | 6.1 | 10.4 | 0.00 | 0.04 | 0.04 | 92 | 1014.0 |
| 20260506155036 | 51 | 23 | 7.8 | 10.4 | 0.00 | 0.04 | 0.04 | 91 | 1014.1 |
| 20260506154606 | 51 | 23 | 5.2 | 12.2 | 0.00 | 0.04 | 0.04 | 91 | 1013.9 |
| 20260506154033 | 51 | 41 | 7.0 | 12.2 | 0.00 | 0.04 | 0.04 | 91 | 1014.2 |
| 20260506153536 | 52 | 25 | 4.3 | 11.3 | 0.00 | 0.04 | 0.04 | 91 | 1014.1 |
| 20260506153047 | 52 | 44 | 5.2 | 13.0 | 0.00 | 0.04 | 0.04 | 91 | 1013.9 |
| 20260506152532 | 52 | 13 | 7.8 | 13.9 | 0.00 | 0.04 | 0.04 | 90 | 1013.6 |
| 20260506152033 | 52 | 27 | 9.6 | 16.5 | 0.01 | 0.04 | 0.04 | 89 | 1013.4 |
| 20260506151541 | 52 | 27 | 10.4 | 16.5 | 0.01 | 0.04 | 0.04 | 90 | 1013.0 |
| 20260506151035 | 52 | 28 | 12.2 | 16.5 | 0.02 | 0.04 | 0.04 | 91 | 1012.6 |
| 20260506150535 | 51 | 25 | 9.6 | 13.9 | 0.02 | 0.04 | 0.04 | 91 | 1013.0 |
| 20260506150052 | 51 | 49 | 7.0 | 11.3 | 0.02 | 0.04 | 0.04 | 92 | 1013.4 |
| 20260506145536 | 51 | 30 | 6.1 | 10.4 | 0.03 | 0.04 | 0.04 | 92 | 1013.7 |
| 20260506145033 | 51 | 32 | 5.2 | 13.9 | 0.03 | 0.04 | 0.04 | 92 | 1013.9 |
| 20260506144546 | 51 | 34 | 6.1 | 13.9 | 0.03 | 0.04 | 0.04 | 93 | 1013.9 |
| 20260506144033 | 51 | 10 | 7.0 | 10.4 | 0.03 | 0.04 | 0.04 | 93 | 1013.7 |
| 20260506143533 | 50 | 30 | 7.0 | 10.4 | 0.04 | 0.04 | 0.04 | 92 | 1013.8 |
| 20260506143042 | 50 | 51 | 4.3 | 10.4 | 0.04 | 0.04 | 0.04 | 92 | 1013.8 |
| 20260506142533 | 50 | 32 | 5.2 | 10.4 | 0.04 | 0.04 | 0.04 | 92 | 1013.8 |
| 20260506142029 | 50 | 9 | 7.0 | 10.4 | 0.03 | 0.03 | 0.03 | 91 | 1013.8 |
| 20260506141539 | 50 | 30 | 6.1 | 8.7 | 0.03 | 0.03 | 0.03 | 91 | 1014.4 |
| 20260506141031 | 50 | 345 | 3.5 | 7.8 | 0.02 | 0.02 | 0.02 | 91 | 1014.9 |
| 20260506140534 | 50 | 319 | 4.3 | 10.4 | 0.02 | 0.02 | 0.02 | 91 | 1015.1 |
| 20260506140054 | 50 | 349 | 5.2 | 10.4 | 0.02 | 0.02 | 0.02 | 91 | 1014.9 |
| 20260506135533 | 50 | 344 | 3.5 | 7.0 | 0.01 | 0.01 | 0.01 | 91 | 1014.7 |
| 20260506135032 | 50 | 23 | 3.5 | 13.0 | 0.01 | 0.01 | 0.01 | 90 | 1014.8 |
| 20260506134541 | 51 | 342 | 2.6 | 13.0 | 0.01 | 0.01 | 0.01 | 89 | 1015.2 |
| 20260506134032 | 51 | 359 | 8.7 | 13.0 | 0.01 | 0.01 | 0.01 | 89 | 1014.3 |
| 20260506133531 | 51 | 37 | 7.8 | 13.0 | 0.00 | 0.00 | 0.00 | 87 | 1014.1 |
| 20260506133052 | 51 | 25 | 7.0 | 10.4 | 0.00 | 0.00 | 0.00 | 86 | 1014.4 |
| 20260506132534 | 51 | 327 | 3.5 | 13.0 | 0.00 | 0.00 | 0.00 | 86 | 1015.4 |
| 20260506132030 | 51 | 309 | 5.2 | 13.0 | 0.00 | 0.00 | 0.00 | 86 | 1014.8 |
| 20260506131544 | 51 | 23 | 8.7 | 13.0 | 0.00 | 0.00 | 0.00 | 85 | 1012.9 |
| 20260506131031 | 52 | 51 | 8.7 | 14.8 | 0.00 | 0.00 | 0.00 | 85 | 1013.3 |
| 20260506130533 | 52 | 24 | 9.6 | 14.8 | 0.00 | 0.00 | 0.00 | 85 | 1013.4 |
| 20260506130044 | 52 | 44 | 7.0 | 12.2 | 0.00 | 0.00 | 0.00 | 85 | 1013.2 |
| 20260506125532 | 52 | 3 | 4.3 | 12.2 | 0.00 | 0.00 | 0.00 | 85 | 1014.0 |
| 20260506125032 | 52 | 7 | 5.2 | 13.0 | 0.00 | 0.00 | 0.00 | 86 | 1014.3 |
| 20260506124540 | 52 | 349 | 7.8 | 13.0 | 0.00 | 0.00 | 0.00 | 85 | 1013.9 |
| 20260506124032 | 52 | 333 | 6.1 | 11.3 | 0.00 | 0.00 | 0.00 | 86 | 1013.5 |
| 20260506123533 | 52 | 21 | 5.2 | 10.4 | 0.00 | 0.00 | 0.00 | 86 | 1013.4 |
| 20260506123039 | 52 | 23 | 5.2 | 10.4 | 0.00 | 0.00 | 0.00 | 86 | 1013.1 |
| 20260506122532 | 52 | 332 | 5.2 | 9.6 | 0.00 | 0.00 | 0.00 | 86 | 1012.9 |
| 20260506122036 | 52 | 355 | 6.1 | 13.9 | 0.00 | 0.00 | 0.00 | 86 | 1012.5 |
| 20260506121544 | 52 | 20 | 8.7 | 13.9 | 0.00 | 0.00 | 0.00 | 86 | 1012.3 |
| 20260506121033 | 52 | 336 | 7.8 | 12.2 | 0.00 | 0.00 | 0.00 | 86 | 1012.1 |
| 20260506120533 | 52 | 32 | 7.8 | 13.0 | 0.00 | 0.00 | 0.00 | 86 | 1012.1 |
| 20260506120047 | 52 | 44 | 9.6 | 13.0 | 0.00 | 0.00 | 0.00 | 86 | 1012.0 |
| 20260506115530 | 52 | 21 | 7.8 | 13.0 | 0.00 | 0.00 | 0.00 | 86 | 1011.9 |
| 20260506115030 | 52 | 342 | 8.7 | 13.0 | 0.00 | 0.00 | 0.00 | 86 | 1011.9 |
| 20260506114541 | 52 | 10 | 6.1 | 14.8 | 0.00 | 0.00 | 0.00 | 85 | 1011.9 |
| 20260506114033 | 53 | 13 | 7.0 | 14.8 | 0.00 | 0.00 | 0.00 | 85 | 1012.0 |
| 20260506113533 | 53 | 25 | 7.0 | 11.3 | 0.00 | 0.00 | 0.00 | 86 | 1012.0 |
| 20260506113047 | 53 | 2 | 7.0 | 10.4 | 0.00 | 0.00 | 0.00 | 85 | 1012.0 |
| 20260506112535 | 53 | 18 | 5.2 | 11.3 | 0.00 | 0.00 | 0.00 | 85 | 1012.1 |
| 20260506112034 | 53 | 323 | 6.1 | 12.2 | 0.00 | 0.00 | 0.00 | 85 | 1012.1 |
| 20260506111552 | 53 | 17 | 7.8 | 12.2 | 0.00 | 0.00 | 0.00 | 84 | 1012.0 |
| 20260506111035 | 54 | 53 | 7.0 | 10.4 | 0.00 | 0.00 | 0.00 | 84 | 1011.8 |
| 20260506110533 | 54 | 340 | 7.0 | 10.4 | 0.00 | 0.00 | 0.00 | 84 | 1011.9 |
| 20260506110048 | 54 | 342 | 4.3 | 10.4 | 0.00 | 0.00 | 0.00 | 85 | 1011.9 |
| 20260506105533 | 54 | 344 | 7.0 | 10.4 | 0.00 | 0.00 | 0.00 | 84 | 1011.9 |
| 20260506105033 | 54 | 348 | 7.0 | 11.3 | 0.00 | 0.00 | 0.00 | 84 | 1011.8 |
| 20260506104554 | 54 | 11 | 7.8 | 11.3 | 0.00 | 0.00 | 0.00 | 84 | 1011.7 |
| 20260506104030 | 54 | 317 | 7.0 | 10.4 | 0.00 | 0.00 | 0.00 | 84 | 1011.5 |
| 20260506103533 | 54 | 327 | 7.0 | 12.2 | 0.00 | 0.00 | 0.00 | 84 | 1011.4 |
| 20260506103043 | 54 | 331 | 7.0 | 12.2 | 0.00 | 0.00 | 0.00 | 85 | 1011.4 |
| 20260506102534 | 54 | 355 | 7.0 | 10.4 | 0.00 | 0.00 | 0.00 | 84 | 1011.2 |
| 20260506102034 | 54 | 47 | 6.1 | 8.7 | 0.00 | 0.00 | 0.00 | 85 | 1010.9 |
| 20260506101548 | 54 | 38 | 6.1 | 9.6 | 0.00 | 0.00 | 0.00 | 84 | 1010.8 |
| 20260506101032 | 54 | 8 | 6.1 | 9.6 | 0.00 | 0.00 | 0.00 | 85 | 1010.9 |
| 20260506100532 | 54 | 34 | 5.2 | 9.6 | 0.00 | 0.00 | 0.00 | 85 | 1010.8 |
| 20260506100046 | 54 | 4 | 6.1 | 9.6 | 0.00 | 0.00 | 0.00 | 85 | 1010.7 |
| 20260506095535 | 54 | 352 | 6.1 | 11.3 | 0.00 | 0.00 | 0.00 | 85 | 1010.5 |
| 20260506095033 | 54 | 20 | 7.0 | 11.3 | 0.00 | 0.00 | 0.00 | 84 | 1010.6 |
| 20260506094547 | 55 | 344 | 7.0 | 10.4 | 0.00 | 0.00 | 0.00 | 85 | 1010.6 |
| 20260506094033 | 55 | 13 | 5.2 | 9.6 | 0.00 | 0.00 | 0.00 | 85 | 1010.7 |
| 20260506093532 | 55 | 27 | 4.3 | 11.3 | 0.00 | 0.00 | 0.00 | 85 | 1010.7 |
| 20260506093047 | 55 | 23 | 6.1 | 11.3 | 0.00 | 0.00 | 0.00 | 85 | 1010.6 |
| 20260506092533 | 55 | 1 | 6.1 | 11.3 | 0.00 | 0.00 | 0.00 | 85 | 1010.4 |
| 20260506092033 | 55 | 307 | 6.1 | 10.4 | 0.00 | 0.00 | 0.00 | 85 | 1010.4 |
| 20260506091544 | 55 | 345 | 5.2 | 9.6 | 0.00 | 0.00 | 0.00 | 85 | 1010.3 |
| 20260506091034 | 55 | 350 | 4.3 | 9.6 | 0.00 | 0.00 | 0.00 | 85 | 1010.3 |
| 20260506090533 | 55 | 34 | 5.2 | 9.6 | 0.00 | 0.00 | 0.00 | 85 | 1010.1 |
| 20260506090041 | 55 | 357 | 4.3 | 9.6 | 0.00 | 0.00 | 0.00 | 85 | 1010.3 |
| 20260506085533 | 55 | 6 | 6.1 | 9.6 | 0.00 | 0.00 | 0.00 | 85 | 1010.3 |
| 20260506085033 | 55 | 16 | 5.2 | 11.3 | 0.00 | 0.00 | 0.00 | 85 | 1010.1 |
| 20260506084544 | 55 | 8 | 6.1 | 11.3 | 0.00 | 0.00 | 0.00 | 85 | 1010.0 |
| 20260506084033 | 55 | 353 | 6.1 | 8.7 | 0.00 | 0.00 | 0.00 | 85 | 1010.1 |
| 20260506083539 | 55 | 359 | 4.3 | 8.7 | 0.00 | 0.00 | 0.00 | 86 | 1010.1 |
| 20260506083050 | 55 | 335 | 4.3 | 8.7 | 0.00 | 0.00 | 0.00 | 86 | 1010.3 |
| 20260506082532 | 55 | 8 | 6.1 | 8.7 | 0.00 | 0.00 | 0.00 | 86 | 1010.2 |
| 20260506082036 | 55 | 33 | 5.2 | 8.7 | 0.00 | 0.00 | 0.00 | 87 | 1010.1 |
| 20260506081552 | 55 | 345 | 5.2 | 8.7 | 0.00 | 0.00 | 0.00 | 87 | 1010.1 |
| 20260506081039 | 55 | 27 | 5.2 | 7.8 | 0.00 | 0.00 | 0.00 | 86 | 1010.0 |
| 20260506080532 | 55 | 8 | 4.3 | 7.8 | 0.00 | 0.00 | 0.00 | 86 | 1010.0 |
| 20260506073043 | 56 | 347 | 2.6 | 7.8 | 0.00 | 0.00 | 0.00 | 86 | 1009.8 |
| 20260506072536 | 56 | 357 | 3.5 | 8.7 | 0.00 | 0.00 | 0.00 | 86 | 1009.8 |
| 20260506072033 | 56 | 350 | 5.2 | 8.7 | 0.00 | 0.00 | 0.00 | 85 | 1009.9 |
| 20260506071542 | 56 | 330 | 4.3 | 8.7 | 0.00 | 0.00 | 0.00 | 85 | 1009.9 |
| 20260506071033 | 57 | 13 | 3.5 | 8.7 | 0.00 | 0.00 | 0.00 | 85 | 1009.8 |
| 20260506070538 | 57 | 2 | 4.3 | 8.7 | 0.00 | 0.00 | 0.00 | 84 | 1009.9 |
| 20260506062033 | 59 | 25 | 3.5 | 7.0 | 0.00 | 0.00 | 0.00 | 81 | 1009.2 |
| 20260506061542 | 59 | 20 | 3.5 | 7.0 | 0.00 | 0.00 | 0.00 | 81 | 1009.2 |
| 20260506061034 | 59 | 35 | 4.3 | 7.0 | 0.00 | 0.00 | 0.00 | 82 | 1009.2 |
| 20260506060533 | 59 | 32 | 2.6 | 4.3 | 0.00 | 0.00 | 0.00 | 81 | 1009.3 |
| 20260506051035 | 63 | 23 | 7.0 | 12.2 | 0.00 | 0.00 | 0.00 | 78 | 1009.6 |
| 20260506050533 | 63 | 60 | 6.1 | 10.4 | 0.00 | 0.00 | 0.00 | 78 | 1009.5 |
| 20260506045038 | 64 | 39 | 4.3 | 9.6 | 0.00 | 0.00 | 0.00 | 76 | 1009.5 |
| 20260506044543 | 64 | 20 | 4.3 | 9.6 | 0.00 | 0.00 | 0.00 | 76 | 1009.4 |
| 20260506044034 | 64 | 11 | 7.0 | 9.6 | 0.00 | 0.00 | 0.00 | 75 | 1009.5 |
| 20260506043532 | 65 | 24 | 5.2 | 10.4 | 0.00 | 0.00 | 0.00 | 75 | 1009.3 |
| 20260506043040 | 65 | 51 | 6.1 | 10.4 | 0.00 | 0.00 | 0.00 | 75 | 1009.2 |
| 20260506042536 | 65 | 43 | 6.1 | 8.7 | 0.00 | 0.00 | 0.00 | 75 | 1009.2 |
| 20260506042033 | 65 | 44 | 4.3 | 10.4 | 0.00 | 0.00 | 0.00 | 76 | 1009.3 |
| 20260506041548 | 65 | 18 | 6.1 | 10.4 | 0.00 | 0.00 | 0.00 | 75 | 1009.2 |
| 20260506041032 | 65 | 63 | 2.6 | 6.1 | 0.00 | 0.00 | 0.00 | 74 | 1009.2 |
| 20260506040532 | 66 | 18 | 2.6 | 5.2 | 0.00 | 0.00 | 0.00 | 74 | 1009.2 |
| 20260506040046 | 66 | 25 | 3.5 | 6.1 | 0.00 | 0.00 | 0.00 | 73 | 1009.1 |
| 20260506035535 | 66 | 8 | 2.6 | 6.1 | 0.00 | 0.00 | 0.00 | 73 | 1008.9 |
| 20260506035035 | 66 | 36 | 3.5 | 7.0 | 0.00 | 0.00 | 0.00 | 72 | 1008.7 |
| 20260506034543 | 67 | 37 | 3.5 | 7.0 | 0.00 | 0.00 | 0.00 | 72 | 1008.7 |
| 20260506034031 | 67 | 37 | 4.3 | 7.0 | 0.00 | 0.00 | 0.00 | 72 | 1008.8 |
| 20260506033537 | 67 | 359 | 3.5 | 7.0 | 0.00 | 0.00 | 0.00 | 72 | 1009.0 |
| 20260506033043 | 67 | 15 | 3.5 | 7.0 | 0.00 | 0.00 | 0.00 | 72 | 1008.9 |
| 20260506032536 | 67 | 16 | 4.3 | 9.6 | 0.00 | 0.00 | 0.00 | 72 | 1008.9 |
| 20260506032033 | 67 | 359 | 5.2 | 9.6 | 0.00 | 0.00 | 0.00 | 71 | 1009.0 |
| 20260506031550 | 67 | 334 | 4.3 | 6.1 | 0.00 | 0.00 | 0.00 | 72 | 1008.9 |
| 20260506031038 | 67 | 4 | 4.3 | 7.0 | 0.00 | 0.00 | 0.00 | 72 | 1008.8 |
| 20260506030533 | 68 | 4 | 4.3 | 7.0 | 0.00 | 0.00 | 0.00 | 72 | 1008.7 |
| 20260506030052 | 68 | 19 | 3.5 | 7.0 | 0.00 | 0.00 | 0.00 | 71 | 1008.6 |
| 20260506025532 | 68 | 39 | 4.3 | 7.0 | 0.00 | 0.00 | 0.00 | 71 | 1008.3 |
| 20260506025036 | 68 | 2 | 4.3 | 7.0 | 0.00 | 0.00 | 0.00 | 71 | 1008.2 |
| 20260506024555 | 68 | 52 | 3.5 | 6.1 | 0.00 | 0.00 | 0.00 | 70 | 1008.1 |
| 20260506024033 | 69 | 4 | 3.5 | 6.1 | 0.00 | 0.00 | 0.00 | 70 | 1007.9 |
| 20260506023534 | 69 | 355 | 2.6 | 8.7 | 0.00 | 0.00 | 0.00 | 69 | 1007.7 |
| 20260506023058 | 69 | 15 | 5.2 | 8.7 | 0.00 | 0.00 | 0.00 | 68 | 1007.5 |
| 20260506022532 | 70 | 28 | 5.2 | 9.6 | 0.00 | 0.00 | 0.00 | 68 | 1007.3 |
| 20260506022032 | 70 | 23 | 7.0 | 9.6 | 0.00 | 0.00 | 0.00 | 68 | 1007.3 |
| 20260506021554 | 70 | 23 | 6.1 | 9.6 | 0.00 | 0.00 | 0.00 | 67 | 1006.9 |
| 20260506021032 | 70 | 346 | 7.0 | 10.4 | 0.00 | 0.00 | 0.00 | 67 | 1006.9 |
| 20260506020532 | 71 | 7 | 6.1 | 13.0 | 0.00 | 0.00 | 0.00 | 67 | 1006.8 |
| 20260506020042 | 71 | 23 | 7.8 | 13.0 | 0.00 | 0.00 | 0.00 | 67 | 1006.8 |
| 20260506015535 | 71 | 34 | 8.7 | 11.3 | 0.00 | 0.00 | 0.00 | 67 | 1006.5 |